Tracking 29495 objects as of 7-Sep-2024
HD Live streaming from Space Station
objects crossing your sky now

STARLINK-4207

Track STARLINK-4207 now!
10-day predictions
STARLINK-4207 is classified as:


NORAD ID: 52871
Int'l Code: 2022-062AT
Perigee: 545.7 km
Apogee: 548.0 km
Inclination: 53.2 °
Period: 95.4 minutes
Semi major axis: 6917 km
RCS: Unknown
Launch date: June 17, 2022
Source: United States (US)
Launch site: AIR FORCE EASTERN TEST RANGE (AFETR)
Your satellite tracking list
Your tracking list is empty




NASA's NSSDC Master Catalog

Two Line Element Set (TLE):
1 52871U 22062AT  24251.16271397  .00002603  00000-0  18159-3 0  9993
2 52871  53.2165 316.5579 0001629 106.4867 253.6304 15.08843921123744
Source of the keplerian elements: AFSPC